Temperature
5 5 5 4 4 4 4 4 4 4 4 4 4 4 4 4 4 4 4 4 4 4 4 4 4 5 5 5 5 5 5 6 6 6 6 7 7 7 8 8 8 8 8
4 4 4 4 3 3 3 3 3 3 3 3 3 3 3 3 3 3 4 4 4 4 4 4 4 4 4 4 5 5 5 5 5 5 5 6 6 7 7 7 8 8 8
4 3 3 3 3 2 2 3 3 3 3 3 3 3 3 3 3 3 3 3 3 3 3 3 3 3 4 4 4 4 4 5 5 5 5 5 5 6 6 7 7 7 7
3 3 2 2 2 2 2 2 2 2 2 2 2 2 2 2 2 2 2 2 2 2 2 3 3 3 3 3 3 3 3 4 4 4 5 5 5 5 5 6 6 7 7
2 2 2 2 1 1 1 1 1 1 1 1 1 1 1 1 2 2 2 2 2 2 2 2 2 2 2 3 3 3 3 3 3 4 4 4 4 5 5 5 5 6 6
2 1 1 1 1 0 0 1 1 1 1 1 1 1 1 1 1 1 1 1 1 1 1 1 1 1 2 2 2 2 2 2 3 3 3 4 4 4 4 4 5 5 6
1 0 0 -0 -0 -0 -0 -0 -0 0 0 0 0 0 0 0 0 0 0 0 0 1 1 1 1 1 1 1 1 2 2 2 2 2 3 3 3 3 4 4 4 4 5
0 -0 -0 -1 -1 -1 -1 -1 -1 -1 -1 -1 -0 -0 -0 -0 -0 -0 -0 -0 -0 0 0 0 0 0 1 1 1 1 1 1 1 1 2 2 3 3 3 3 3 3 4
-1 -1 -1 -1 -1 -2 -2 -2 -1 -1 -1 -1 -1 -1 -1 -1 -1 -1 -1 -1 -1 -1 -0 -0 -0 -0 0 0 0 0 1 1 1 1 1 1 2 2 2 3 3 3 3
-2 -1 -2 -2 -2 -2 -2 -2 -2 -2 -2 -2 -2 -2 -2 -2 -2 -1 -1 -1 -1 -1 -1 -1 -1 -1 -1 -0 -0 -0 -0 -0 0 0 1 1 1 1 2 2 2 2 2
-2 -2 -2 -2 -2 -2 -2 -2 -2 -2 -2 -2 -2 -2 -2 -2 -2 -2 -2 -2 -2 -2 -2 -1 -1 -1 -1 -1 -1 -1 -1 -0 -0 0 0 0 1 1 1 1 2 2 2
-3 -3 -3 -3 -3 -3 -3 -3 -3 -3 -3 -3 -3 -3 -3 -3 -3 -3 -2 -2 -2 -2 -2 -2 -2 -1 -1 -1 -1 -1 -1 -1 -1 -0 -0 -0 -0 0 1 1 1 1 1
-3 -3 -4 -4 -3 -3 -3 -3 -3 -3 -3 -3 -3 -3 -3 -3 -3 -3 -3 -3 -3 -3 -3 -2 -2 -2 -2 -2 -2 -1 -1 -1 -1 -1 -1 -1 -0 -0 -0 0 0 1 1
-4 -4 -4 -4 -4 -4 -4 -4 -4 -4 -4 -4 -4 -4 -4 -4 -4 -4 -4 -3 -3 -3 -3 -3 -3 -3 -3 -2 -2 -2 -2 -2 -2 -1 -1 -1 -1 -1 -1 -0 -0 -0 0
-5 -5 -5 -5 -5 -5 -5 -5 -5 -5 -5 -4 -4 -4 -4 -4 -4 -4 -4 -4 -4 -4 -4 -3 -3 -3 -3 -3 -3 -2 -2 -2 -2 -2 -2 -2 -1 -1 -1 -1 -1 -1 -0
-6 -6 -6 -6 -6 -6 -5 -5 -5 -5 -5 -5 -5 -5 -5 -5 -5 -5 -5 -5 -4 -4 -4 -4 -4 -4 -3 -3 -3 -3 -3 -2 -2 -2 -2 -2 -2 -2 -2 -2 -1 -1 -1
-6 -7 -7 -7 -7 -6 -6 -6 -6 -6 -6 -5 -5 -5 -6 -6 -6 -5 -5 -5 -5 -5 -5 -5 -4 -4 -4 -4 -3 -3 -3 -3 -3 -3 -3 -2 -2 -2 -2 -2 -2 -2 -1
-7 -7 -7 -7 -7 -7 -7 -6 -6 -6 -6 -6 -6 -6 -6 -6 -6 -6 -6 -6 -5 -5 -5 -5 -5 -5 -4 -4 -4 -4 -4 -3 -3 -3 -3 -3 -3 -3 -3 -3 -2 -2 -2
-8 -8 -8 -8 -8 -7 -7 -7 -7 -7 -7 -7 -7 -7 -7 -7 -7 -7 -6 -6 -6 -6 -6 -5 -5 -5 -5 -5 -5 -5 -4 -4 -4 -4 -4 -3 -3 -3 -3 -3 -3 -3 -2
-8 -8 -8 -8 -8 -8 -8 -8 -8 -8 -7 -7 -7 -7 -7 -7 -7 -7 -7 -7 -7 -6 -6 -6 -6 -6 -5 -5 -5 -5 -5 -5 -4 -4 -4 -4 -4 -4 -3 -3 -3 -3 -3
-9 -9 -9 -9 -9 -9 -9 -9 -8 -8 -8 -8 -8 -8 -8 -8 -8 -8 -8 -7 -7 -7 -7 -6 -6 -6 -6 -6 -6 -5 -5 -5 -5 -5 -5 -4 -4 -4 -4 -4 -4 -4 -3
-9 -9 -9 -9 -9 -9 -9 -9 -9 -9 -9 -8 -8 -8 -8 -8 -8 -8 -8 -8 -8 -8 -7 -7 -7 -7 -7 -6 -6 -6 -6 -6 -6 -5 -5 -5 -5 -4 -4 -4 -4 -4 -4
-10 -10 -10 -10 -9 -10 -10 -10 -9 -9 -9 -9 -9 -9 -8 -8 -8 -8 -8 -8 -8 -8 -8 -8 -8 -7 -7 -7 -7 -7 -7 -7 -6 -6 -6 -5 -5 -5 -5 -5 -5 -4 -4
-11 -10 -10 -10 -10 -10 -10 -10 -10 -10 -9 -9 -9 -9 -9 -9 -9 -9 -9 -9 -9 -9 -9 -9 -8 -8 -8 -8 -8 -7 -7 -7 -7 -7 -7 -6 -6 -5 -5 -5 -5 -5 -5
-11 -11 -11 -11 -11 -11 -10 -10 -10 -10 -10 -10 -10 -9 -9 -9 -9 -9 -9 -9 -9 -9 -9 -9 -9 -9 -8 -8 -8 -8 -8 -8 -8 -7 -7 -7 -7 -6 -6 -6 -6 -6 -6
-12 -12 -11 -11 -11 -11 -11 -11 -11 -10 -10 -10 -10 -10 -10 -10 -10 -10 -9 -9 -10 -10 -10 -9 -9 -9 -9 -9 -8 -8 -8 -8 -8 -8 -8 -8 -8 -8 -7 -7 -7 -7 -7
Wind_Speed
2 3 3 4 3 3 3 3 3 2 2 1 1 1 1 0 0 0 1 1 1 1 0 1 1 1 1 1 1 0 0 0 0 1 1 1 1 2 2 2 2 2 4
1 2 3 3 3 3 3 3 3 2 2 2 1 1 1 1 1 1 0 0 1 1 1 0 1 1 1 1 0 0 1 1 1 1 1 0 1 1 2 2 2 3 3
1 1 1 1 2 2 2 2 2 2 2 2 1 0 0 1 1 1 1 1 1 1 1 1 1 1 1 1 1 1 1 2 2 1 1 2 2 1 1 3 3 3 3
1 1 1 1 1 1 1 2 2 2 2 2 2 2 2 2 2 2 2 2 1 2 2 1 2 1 1 1 2 2 1 2 2 1 1 1 1 1 1 1 2 4 4
1 0 0 1 1 1 1 1 1 2 2 2 3 3 2 2 1 2 2 2 2 2 2 2 2 2 1 2 2 2 2 2 2 2 2 1 1 1 2 2 2 2 2
1 1 1 1 1 0 1 1 1 1 2 2 2 3 3 2 2 2 2 2 2 1 2 2 2 2 2 2 3 3 3 3 3 3 2 2 2 2 2 2 2 2 2
2 1 1 1 1 1 1 1 1 1 1 2 2 3 3 3 3 3 3 3 2 2 2 2 2 2 3 3 3 3 3 4 4 4 4 3 3 2 2 2 2 2 1
3 2 1 1 1 1 1 2 2 2 2 2 3 3 3 2 2 3 3 3 3 3 3 3 3 4 4 4 3 3 4 3 4 5 5 4 4 3 2 3 2 2 2
4 4 3 1 1 1 1 2 2 2 3 3 3 3 2 2 2 3 3 3 3 3 4 4 4 5 5 5 4 4 5 4 5 5 5 4 4 3 3 3 3 4 3
5 5 4 3 1 1 1 2 2 3 3 3 3 3 2 2 2 3 3 4 4 4 4 5 4 4 4 5 4 4 5 5 5 5 5 5 4 4 3 4 3 3 4
5 5 4 3 2 2 1 2 2 3 3 3 3 3 3 2 2 3 4 4 4 4 5 5 5 5 5 5 5 5 5 6 6 6 6 6 5 5 4 4 4 3 3
5 4 4 4 3 2 2 2 2 3 3 3 3 3 3 3 3 3 3 3 4 4 4 5 5 5 5 5 6 6 6 6 7 6 6 6 6 6 5 5 5 4 4
5 5 4 4 3 3 3 3 3 3 4 4 4 4 3 3 4 4 3 3 4 4 4 4 5 5 5 5 6 6 6 6 7 7 7 7 6 7 6 6 5 5 5
5 6 5 5 4 4 3 3 4 3 4 4 4 4 4 4 4 4 4 4 4 4 4 5 5 5 5 6 6 6 6 6 7 7 7 7 7 8 7 6 6 6 5
7 7 7 7 6 5 4 4 4 4 4 4 4 5 4 4 4 4 4 4 4 5 5 5 5 5 5 5 6 5 6 7 7 7 7 7 8 10 8 7 7 7 6
7 7 8 8 8 7 6 5 5 5 4 4 5 4 4 4 4 4 4 4 4 4 5 5 5 5 6 7 8 7 6 6 7 7 7 7 8 10 11 11 10 9 8
8 8 8 8 8 7 7 6 6 5 5 4 4 4 4 4 4 4 4 4 4 4 5 5 5 5 6 8 8 9 6 6 7 7 7 6 7 9 7 8 10 10 11
9 8 8 8 8 7 7 6 5 5 5 5 4 4 4 4 4 4 4 4 4 4 4 5 5 5 6 9 9 9 7 6 7 8 8 8 7 8 8 7 7 7 7
8 8 7 7 7 7 6 6 5 5 5 5 5 5 4 4 4 4 4 4 4 4 4 5 4 4 6 9 9 8 5 6 7 7 7 8 8 10 11 8 8 7 6
8 8 7 7 7 7 6 5 6 5 6 6 6 5 4 4 4 4 4 3 3 4 4 5 4 4 5 7 7 7 4 5 5 6 7 9 10 11 11 9 8 9 7
9 8 7 7 7 7 6 5 6 6 6 6 6 5 4 4 4 3 3 3 3 3 3 4 4 4 5 6 6 5 3 4 4 5 5 5 9 11 11 10 8 10 7
9 8 7 7 7 6 6 6 7 7 6 6 5 5 4 4 3 2 2 2 2 3 3 3 4 3 4 5 4 5 5 4 3 4 4 4 7 8 9 9 9 10 7
9 8 7 7 8 7 6 6 7 7 6 5 5 5 4 4 3 2 2 2 2 2 3 3 3 3 3 4 6 5 5 4 2 2 4 5 6 7 6 7 8 7 5
8 8 7 8 8 8 8 7 7 7 6 6 5 5 4 4 3 3 2 2 2 2 3 3 3 3 3 3 3 3 3 3 3 2 3 3 2 1 2 3 3 3 4
8 8 7 7 8 8 8 8 8 7 6 6 5 5 4 4 3 3 2 2 2 2 2 2 2 2 3 4 6 4 2 1 1 1 1 1 0 0 0 0 1 1 2
8 8 8 8 8 8 8 8 8 7 6 6 6 5 4 4 4 4 4 5 5 6 6 6 4 3 5 7 7 7 6 5 3 1 1 0 0 0 0 0 0 0 1
Wind_Direction
149 126 119 116 122 134 137 141 137 134 131 137 139 169 194 190 268 300 215 261 287 301 356 302 331 330 275 260 251 183 141 345 57 83 42 346 255 196 162 138 131 143 149
117 117 123 131 143 153 153 151 153 155 153 165 191 207 221 234 268 281 56 311 321 310 297 33 274 298 278 275 259 127 220 253 210 151 146 167 269 240 195 173 178 174 150
164 129 116 146 151 163 165 177 170 173 171 161 161 179 23 340 314 291 274 298 290 284 281 249 251 262 269 239 238 228 199 222 252 217 173 172 206 213 211 197 191 186 180
135 132 141 186 184 182 173 177 182 183 185 179 180 188 218 235 264 260 264 285 259 253 259 241 237 236 245 249 243 229 235 208 230 255 273 222 182 175 200 233 206 194 187
22 82 170 216 210 183 177 188 199 202 203 203 198 199 228 247 250 248 257 269 271 237 235 243 241 234 241 243 246 236 235 227 223 232 246 259 278 255 179 220 223 220 211
355 332 21 39 356 51 124 200 215 233 218 223 218 214 227 237 233 238 240 249 254 260 232 237 239 233 234 233 243 244 239 235 232 231 227 218 210 212 196 211 210 216 226
8 355 8 14 355 1 353 296 249 268 250 241 233 235 231 233 229 231 236 241 250 260 240 246 244 242 238 231 235 238 241 235 227 226 230 230 230 224 220 209 225 248 251
8 359 356 16 348 329 327 317 286 286 277 261 253 250 249 243 236 236 242 247 251 253 248 240 235 237 239 239 239 246 238 237 229 232 229 228 229 225 219 206 199 233 261
7 360 356 5 345 310 301 304 305 298 285 280 276 263 258 260 252 247 245 252 252 259 245 243 240 238 231 228 232 243 234 232 231 228 225 225 225 221 222 217 200 196 223
359 352 350 345 341 306 304 318 316 308 297 292 288 286 276 261 259 257 255 251 250 257 250 248 241 241 237 231 230 239 235 230 239 232 224 226 220 216 217 216 223 215 214
350 344 343 339 337 333 319 317 317 319 317 309 307 298 288 277 259 256 256 257 258 257 254 253 245 244 242 237 231 236 236 229 237 236 225 225 217 214 216 213 219 226 219
358 350 343 338 337 329 318 311 316 316 313 313 308 299 294 287 276 273 269 267 265 260 259 259 255 248 243 240 232 236 240 228 228 231 225 223 221 215 216 214 218 225 221
358 357 349 340 336 332 328 319 315 312 311 310 301 295 294 291 284 281 280 274 273 273 270 261 252 250 243 242 240 237 241 233 227 227 226 223 218 219 219 215 219 224 229
356 353 346 340 338 335 327 319 314 308 307 302 296 290 287 284 284 287 284 276 274 275 270 264 257 254 247 243 242 241 237 233 229 228 228 224 220 219 216 218 219 221 221
350 346 343 338 333 331 324 318 315 313 306 300 295 288 293 293 295 294 288 281 274 273 271 267 262 259 253 245 240 239 234 229 229 229 229 228 221 222 222 222 214 213 216
339 340 338 335 331 328 320 318 317 313 305 296 293 296 297 298 297 295 292 286 279 276 272 266 261 256 254 258 255 248 240 232 230 232 231 233 226 224 230 233 233 227 218
331 334 331 326 322 320 318 312 309 310 305 297 296 297 296 295 293 296 296 291 285 279 273 269 266 262 259 260 260 252 248 234 231 229 228 233 230 224 218 228 233 238 238
333 326 324 323 320 319 320 313 309 308 309 310 304 303 300 298 297 295 290 291 291 285 279 278 277 270 266 264 261 259 250 239 234 230 225 225 227 227 217 216 222 225 230
326 321 320 319 320 322 323 324 320 317 319 317 310 303 297 294 293 291 294 296 294 290 284 282 278 275 275 268 264 260 243 236 235 234 228 224 225 232 226 214 214 222 228
331 328 326 328 329 327 329 328 323 327 324 319 312 305 298 291 287 286 291 296 292 290 293 292 289 279 280 277 270 259 237 237 238 233 230 231 228 233 229 211 208 218 221
330 331 333 335 333 332 334 330 328 325 321 320 319 317 309 298 287 283 290 296 296 301 300 300 302 296 294 292 281 269 244 236 239 236 230 227 229 233 231 225 216 222 218
339 341 341 341 341 343 342 338 332 327 327 327 327 326 324 321 316 296 296 300 299 302 304 309 312 310 308 313 303 290 279 268 244 244 238 231 230 234 236 233 228 227 219
342 344 346 346 347 348 348 341 332 334 338 345 342 339 340 338 339 335 322 322 319 316 314 316 317 326 327 325 325 318 308 295 279 268 268 256 245 235 231 229 230 224 214
344 347 352 352 345 346 346 338 334 340 349 351 347 347 349 349 352 349 342 336 330 332 329 331 330 330 337 342 341 336 324 314 300 303 310 305 299 272 248 236 232 225 213
344 348 350 349 346 348 348 344 346 350 354 352 347 348 349 344 347 346 343 340 333 341 338 327 317 328 330 331 335 339 331 319 280 309 17 5 12 185 93 250 247 230 212
345 348 350 350 346 348 348 347 348 351 352 348 347 347 351 353 354 354 353 352 352 344 340 340 341 326 328 331 335 339 340 337 335 9 63 352 16 232 227 230 294 302 253
Height
1481 1482 1483 1484 1485 1486 1487 1487 1488 1489 1490 1490 1491 1491 1492 1493 1494 1495 1496 1497 1497 1498 1499 1500 1501 1503 1504 1505 1507 1508 1509 1512 1513 1515 1516 1518 1520 1521 1523 1525 1527 1529 1530
1479 1479 1480 1481 1482 1483 1483 1484 1485 1486 1487 1487 1488 1489 1489 1490 1491 1492 1493 1494 1494 1495 1496 1497 1498 1499 1501 1502 1503 1505 1506 1508 1510 1512 1514 1515 1518 1517 1519 1521 1524 1525 1527
1476 1477 1477 1478 1479 1479 1480 1481 1482 1483 1483 1484 1485 1485 1486 1486 1488 1488 1489 1490 1491 1491 1492 1493 1494 1496 1497 1498 1500 1502 1503 1505 1507 1509 1511 1513 1513 1514 1516 1518 1520 1522 1523
1474 1474 1475 1475 1476 1477 1477 1478 1479 1480 1480 1481 1481 1481 1481 1482 1483 1484 1484 1485 1487 1488 1489 1489 1491 1492 1493 1494 1496 1498 1500 1502 1503 1505 1507 1509 1510 1511 1512 1514 1516 1518 1520
1472 1472 1472 1472 1473 1474 1474 1475 1476 1476 1477 1477 1478 1478 1478 1479 1479 1480 1481 1481 1482 1483 1485 1486 1487 1488 1489 1491 1492 1494 1496 1498 1499 1501 1503 1505 1507 1508 1509 1510 1512 1514 1515
1470 1470 1470 1471 1471 1471 1472 1472 1472 1473 1474 1474 1474 1474 1475 1475 1475 1476 1477 1477 1478 1479 1481 1482 1483 1484 1485 1487 1488 1490 1492 1494 1495 1497 1499 1501 1503 1503 1505 1507 1508 1509 1511
1469 1469 1468 1469 1469 1469 1469 1469 1469 1470 1470 1470 1471 1471 1471 1472 1472 1472 1473 1473 1474 1475 1476 1477 1479 1480 1481 1483 1484 1486 1487 1489 1491 1493 1495 1497 1498 1500 1502 1503 1504 1506 1507
1468 1467 1467 1467 1467 1467 1467 1467 1466 1466 1466 1467 1467 1467 1468 1468 1468 1468 1469 1470 1470 1471 1472 1473 1474 1476 1477 1478 1480 1481 1482 1484 1486 1488 1490 1492 1494 1496 1498 1499 1501 1503 1504
1467 1466 1466 1466 1465 1465 1464 1464 1464 1463 1463 1463 1463 1463 1463 1463 1464 1464 1465 1466 1466 1467 1468 1469 1470 1471 1472 1474 1475 1476 1477 1479 1481 1483 1485 1487 1489 1491 1493 1495 1497 1499 1499
1467 1466 1465 1464 1464 1463 1462 1462 1461 1461 1461 1460 1460 1460 1460 1460 1460 1460 1461 1462 1462 1463 1464 1464 1465 1466 1467 1469 1470 1471 1472 1474 1476 1478 1480 1481 1483 1485 1487 1489 1492 1494 1495
1466 1465 1463 1463 1462 1461 1460 1459 1459 1458 1457 1457 1457 1456 1456 1456 1456 1456 1457 1457 1458 1458 1459 1460 1460 1461 1462 1464 1465 1466 1467 1468 1470 1472 1474 1476 1478 1480 1482 1484 1486 1488 1491
1466 1464 1462 1461 1460 1459 1458 1457 1456 1455 1454 1454 1453 1453 1452 1452 1452 1452 1452 1453 1453 1454 1454 1455 1455 1456 1457 1458 1459 1460 1462 1463 1464 1467 1469 1471 1473 1474 1477 1479 1480 1483 1485
1465 1463 1461 1459 1458 1457 1455 1454 1453 1452 1451 1451 1450 1449 1449 1448 1448 1448 1448 1448 1448 1449 1449 1449 1450 1451 1452 1453 1454 1455 1456 1457 1459 1461 1463 1465 1467 1469 1471 1473 1475 1477 1480
1464 1462 1460 1458 1456 1455 1453 1452 1450 1449 1448 1447 1446 1445 1445 1444 1444 1443 1443 1443 1444 1444 1444 1444 1445 1445 1446 1447 1449 1450 1451 1452 1453 1455 1457 1459 1461 1463 1465 1467 1469 1472 1474
1462 1460 1458 1456 1454 1452 1450 1449 1447 1446 1445 1444 1443 1442 1441 1440 1440 1439 1439 1439 1439 1439 1439 1439 1439 1440 1441 1442 1443 1444 1445 1446 1447 1449 1451 1453 1455 1457 1459 1461 1464 1466 1468
1461 1458 1456 1453 1451 1449 1447 1445 1444 1442 1441 1440 1439 1438 1437 1436 1436 1435 1435 1435 1435 1435 1435 1434 1434 1435 1435 1436 1437 1439 1439 1440 1442 1443 1445 1447 1449 1451 1454 1456 1458 1460 1462
1459 1456 1454 1451 1449 1446 1444 1442 1440 1439 1437 1436 1435 1434 1434 1433 1432 1432 1431 1431 1431 1430 1430 1430 1430 1430 1430 1431 1432 1433 1433 1434 1436 1437 1439 1441 1443 1445 1448 1450 1452 1454 1456
1457 1454 1451 1448 1445 1443 1441 1439 1437 1435 1434 1432 1431 1431 1430 1429 1428 1428 1427 1427 1427 1426 1426 1425 1425 1425 1425 1426 1426 1427 1428 1428 1430 1431 1433 1435 1437 1439 1442 1444 1446 1448 1450
1456 1452 1449 1446 1443 1440 1438 1436 1434 1432 1430 1429 1428 1427 1426 1425 1425 1424 1423 1423 1423 1422 1422 1421 1421 1421 1420 1421 1421 1422 1422 1422 1423 1425 1427 1429 1431 1433 1436 1438 1440 1442 1444
1453 1450 1446 1443 1440 1437 1435 1433 1430 1428 1426 1425 1424 1424 1423 1422 1421 1421 1420 1420 1419 1419 1418 1418 1418 1417 1416 1416 1417 1417 1417 1417 1418 1419 1421 1423 1425 1428 1430 1432 1434 1435 1437
1451 1447 1444 1440 1437 1435 1433 1430 1427 1425 1424 1422 1421 1420 1419 1419 1418 1417 1417 1416 1416 1415 1415 1414 1414 1413 1413 1412 1412 1413 1413 1412 1412 1413 1415 1416 1419 1422 1425 1426 1428 1430 1433
1448 1445 1442 1438 1435 1433 1430 1427 1424 1423 1421 1419 1417 1417 1416 1416 1415 1415 1414 1413 1412 1412 1411 1411 1410 1410 1409 1409 1409 1409 1409 1408 1408 1408 1409 1411 1414 1416 1419 1421 1422 1425 1427
1447 1443 1440 1436 1434 1431 1429 1425 1423 1421 1418 1416 1415 1414 1413 1413 1413 1412 1411 1410 1410 1409 1408 1408 1407 1407 1407 1406 1405 1405 1405 1405 1404 1404 1405 1407 1409 1411 1413 1415 1417 1419 1421
1445 1442 1439 1435 1433 1430 1427 1425 1422 1419 1417 1415 1413 1412 1411 1411 1410 1410 1409 1409 1408 1407 1407 1406 1405 1404 1404 1403 1403 1402 1401 1401 1401 1401 1401 1403 1404 1406 1408 1409 1411 1413 1415
1445 1442 1438 1435 1432 1429 1426 1424 1421 1419 1416 1414 1413 1412 1411 1410 1409 1408 1408 1407 1406 1406 1405 1404 1404 1403 1401 1401 1401 1400 1399 1398 1398 1398 1398 1399 1400 1401 1403 1404 1405 1407 1409
1444 1441 1438 1434 1432 1429 1426 1424 1421 1419 1416 1414 1413 1411 1410 1409 1408 1406 1406 1405 1405 1404 1404 1403 1403 1402 1401 1400 1399 1398 1397 1396 1396 1396 1396 1396 1397 1399 1399 1400 1401 1402 1404